Regional Weather Roundup
Issued by NWS Boston, MA

Home | Current Version | Previous Version | Text Only | Print | Product List | Glossary On
Versions: 1 2 3 4 5 6 7 8 9 10 11 12 13 14 15 16 17 18 19 20 21 22 23 24 25 26 27 28 29 30 31 32 33 34 35 36 37 38 39 40 41 42 43 44 45 46 47 48 49 50
452
ASUS41 KBOX 201310
RWRBOX

REGIONAL WEATHER ROUNDUP
NATIONAL WEATHER SERVICE TAUNTON MA
800 AM EST MON FEB 20 2017

NOTE:  "FAIR" INDICATES FEW OR NO CLOUDS BELOW 12,000 FEET WITH NO
SIGNIFICANT WEATHER AND/OR OBSTRUCTIONS TO VISIBILITY.

MAZALL-201400-
EASTERN MASSACHUSETTS

CITY           SKY/WX    TMP DP  RH WIND       PRES   REMARKS
BOSTON         MOSUNNY   39  24  55 NW13      30.13R WCI  31
BEVERLY        SUNNY     37  24  59 NW10      30.11R WCI  30
LAWRENCE       SUNNY     37  23  56 NW7       30.11R WCI  32
BEDFORD        SUNNY     37  20  50 NW10      30.12R WCI  30
BLUE HILL        N/A     35  22  58 NW12      30.08R WCI  27
NORWOOD        SUNNY     40  23  50 NW7       30.12R
MARSHFIELD     MOSUNNY   41  25  52 VRB6G14   30.11R
PLYMOUTH       SUNNY     40  24  53 N10       30.10R
TAUNTON        SUNNY     40  27  59 N6        30.10R
NEW BEDFORD    SUNNY     42  27  55 N6        30.10R
$$

MAZALL-201400-
CAPE COD AND THE ISLANDS

CITY           SKY/WX    TMP DP  RH WIND       PRES   REMARKS
FALMOUTH       SUNNY     41  23  48 MISG      30.10R
HYANNIS        SUNNY     42  30  62 N10G21    30.07R
CHATHAM        CLOUDY    42  33  70 N5        30.09R
PROVINCETOWN   CLOUDY    40  30  67 NE15      30.10R WCI  32
NANTUCKET      MOSUNNY   42  30  62 N18G25    30.07R
MARTHAS VNYRD  SUNNY     42  30  62 N9        30.09R
$$

MAZALL-201400-
CENTRAL AND WESTERN MASSACHUSETTS

CITY           SKY/WX    TMP DP  RH WIND       PRES   REMARKS
WORCESTER      SUNNY     35  22  58 N7        30.10R WCI  29
FITCHBURG      SUNNY     38  22  52 N5        30.13R
ORANGE         SUNNY     34  24  67 N6        30.13R WCI  29
SPRINGFIELD    SUNNY     34  24  68 N5        30.13R WCI  30
WESTFIELD      SUNNY     33  27  78 N5        30.13R WCI  29
NORTH ADAMS    SUNNY     33  21  61 VRB7      30.15R WCI  27
PITTSFIELD     CLOUDY    32  22  66 NW8       30.11R WCI  25
$$

RIZALL-201400-
RHODE ISLAND

CITY           SKY/WX    TMP DP  RH WIND       PRES   REMARKS
PROVIDENCE     MOSUNNY   41  29  62 N9        30.12R
NEWPORT        SUNNY     42  30  62 N8        30.10R
BLOCK ISLAND   SUNNY     42  32  67 NW9       30.12R
SMITHFIELD     SUNNY     37  27  67 N9        30.11R WCI  30
WESTERLY       SUNNY     43  30  60 NW8       30.13R
$$

CTZALL-201400-
CONNECTICUT

CITY           SKY/WX    TMP DP  RH WIND       PRES   REMARKS
BRADLEY INTL   MOSUNNY   38  30  73 N6        30.14R
HARTFORD       SUNNY     41  31  67 NW8       30.14R
BRIDGEPORT     SUNNY     44  31  60 NW7       30.14R
DANBURY        SUNNY     30  28  92 CALM      30.15R
GROTON         SUNNY     43  32  65 NW8       30.12R
NEW HAVEN      SUNNY     42  32  67 NW6       30.14R
CHESTER        FAIR      41  30  65 VRB5      30.12R
MERIDEN        SUNNY     34  29  82 CALM      30.14R
WILLIMANTIC    SUNNY     33  28  81 CALM      30.14R
OXFORD         MOSUNNY   37  27  65 N6        30.14R
$$

MEZ002-015-021-024-NHZ003-005-008-011-012-014-VTZ005-008-201400-
NORTHERN NEW ENGLAND

CITY           SKY/WX    TMP DP  RH WIND       PRES   REMARKS
PORTLAND ME    MOSUNNY   34  19  54 N17       30.11R WCI  23
BANGOR ME      PTSUNNY   32  21  64 N8        30.07R WCI  25
CONCORD NH     SUNNY     34  18  52 NW10G20   30.12R WCI  26
MANCHESTER NH  MOSUNNY   36  20  52 N7        30.11R WCI  30
NASHUA NH      PTSUNNY   36  23  59 NW3       30.14R
PORTSMOUTH NH  PTSUNNY   34  22  61 N6        30.10R WCI  29
JAFFREY NH     SUNNY     33  18  53 VRB7      30.10R WCI  27
KEENE NH       SUNNY     31  25  78 N8        30.14R WCI  23
BURLINGTON VT  PTSUNNY   30  19  63 NW9       30.22R WCI  22
MT. WASHINGTON FOG        7   7 100 NW54G61     N/A  VSB 1/16WCI -22
$$

NYZ052-076-201400-
EASTERN NEW YORK

CITY           SKY/WX    TMP DP  RH WIND       PRES   REMARKS
ALBANY         PTSUNNY   35  26  69 NW12      30.20R WCI  27
NEW YORK CITY  MOSUNNY   45  32  60 NW13      30.15R
$$

ANZALL-201400-
MARINE OBSERVATIONS

STATION/POSITION TIME  TEMP    WIND        PRES    VSBY  WAVE
                       AIR SEA DIR/SP/G                  HT/PER
                 (UTC) (F)     (DEG/KT/KT) (MB)    (MI)  (FT/S)
BOSTON BUOY      1150   41 42  340/ 14/ 16 1016.9          2/ 3
BUZZARDS BAY     1200   41     350/ 14/ 14 1018.4R
NANTUCKET SOUND  1150   41 38  350/ 12/ 14 1016.9          2/ 3
MASS BAY-STELLWA 1204   40 40  360/ 12/ 14 1017.2R         1/ 8
ISLE OF SHOALS   1200   37     360/ 12/ 14 1018.1R
S OF BLOCK IS    1255      42                N/A           3/ 8
$$

......................KEY.........................
  SKY/WX - SKY CONDITION/PRESENT WEATHER
  TMP    - TEMPERATURE IN FAHRENHEIT
  DWPT   - DEWPOINT IN FAHRENHEIT
  RH     - RELATIVE HUMIDITY IN PERCENT
  WIND   - DIRECTION AND SPEED IN MPH
  PRES   - MEAN SEA LEVEL PRESSURE IN INCHES OF HG
  WCI    - WIND CHILL INDEX
  VSB    - VISIBILITY IN MILES
  HX     - HEAT INDEX
  TC     - TEMPERATURE IN CELSIUS
  VRB    - VARIABLE WIND DIRECTION
  N/A    - NOT AVAILABLE




USA.gov is the U.S. government's official web portal to all federal, state and local government web resources and services.